Torna al catalogo

ONEWEB-0712

AttivoComunicazioniPO
NORAD 54680·PAYLOAD·🇬🇧 United Kingdom

Lanciato Dec 8, 2022 da Cape Canaveral Space Force Station

Loading…

Prossimi Passaggi (prossime 24 ore)

TLE

AggiornatoSource: CelesTrak SupGP

Epoca: Sep 14, 2026, 07:15 UTC

1 54680C 22166AQ  26257.30256944  .00002162  00000+0  56612-2 0  2574
2 54680  87.9146 211.0805 0002514  74.8837  30.0350 13.16589478    10

Traccia ONEWEB-0712 in tempo reale con AllMySat

Download on the App Store